Stündliche Wetter Bolshie Mozhary

Heute, 30 September, Mittwoch

Zeit Temperatur Niederschläge Wind Luftdruck Luftfeuchtigkeit
00:00 +12°C° 0 mm 4 m/S 759 mmHg 53%
01:00 +12°C° 0 mm 4 m/S 759 mmHg 56%
02:00 +12°C° 0 mm 4 m/S 759 mmHg 59%
03:00 +11°C° 0 mm 4 m/S 759 mmHg 63%
04:00 +11°C° 0 mm 4 m/S 758 mmHg 64%
05:00 +11°C° 0 mm 4 m/S 758 mmHg 64%
06:00 +10°C° 0 mm 5 m/S 758 mmHg 65%
07:00 +12°C° 0 mm 5 m/S 758 mmHg 60%
08:00 +13°C° 0 mm 5 m/S 758 mmHg 55%
09:00 +14°C° 0 mm 5 m/S 759 mmHg 51%
10:00 +15°C° 0 mm 5 m/S 759 mmHg 47%
11:00 +17°C° 0 mm 6 m/S 759 mmHg 43%
12:00 +19°C° 0 mm 6 m/S 758 mmHg 38%
13:00 +19°C° 0 mm 6 m/S 758 mmHg 39%
14:00 +20°C° 0 mm 6 m/S 758 mmHg 39%
15:00 +20°C° 0 mm 6 m/S 758 mmHg 39%
16:00 +19°C° 0 mm 5 m/S 758 mmHg 43%
17:00 +16°C° 0 mm 5 m/S 758 mmHg 46%
18:00 +15°C° 0 mm 4 m/S 758 mmHg 50%
19:00 +15°C° 0 mm 4 m/S 758 mmHg 51%
20:00 +14°C° 0 mm 4 m/S 758 mmHg 52%
21:00 +14°C° 0 mm 4 m/S 758 mmHg 52%
22:00 +14°C° 0 mm 4 m/S 759 mmHg 53%
23:00 +13°C° 0 mm 4 m/S 759 mmHg 53%

Morgen, 1 Oktober, Donnerstag

Zeit Temperatur Niederschläge Wind Luftdruck Luftfeuchtigkeit
00:00 +13°C° 0 mm 4 m/S 759 mmHg 54%
01:00 +12°C° 0 mm 4 m/S 759 mmHg 55%
02:00 +12°C° 0 mm 4 m/S 759 mmHg 55%
03:00 +12°C° 0 mm 4 m/S 759 mmHg 56%
04:00 +11°C° 0 mm 4 m/S 759 mmHg 56%
05:00 +11°C° 0 mm 4 m/S 759 mmHg 56%
06:00 +11°C° 0 mm 4 m/S 759 mmHg 55%
07:00 +12°C° 0 mm 4 m/S 759 mmHg 51%
08:00 +14°C° 0 mm 5 m/S 759 mmHg 47%
09:00 +15°C° 0 mm 5 m/S 759 mmHg 43%
10:00 +16°C° 0 mm 5 m/S 759 mmHg 39%
11:00 +19°C° 0 mm 6 m/S 759 mmHg 35%
12:00 +20°C° 0 mm 6 m/S 759 mmHg 32%
13:00 +20°C° 0 mm 6 m/S 759 mmHg 32%
14:00 +20°C° 0 mm 6 m/S 759 mmHg 32%
15:00 +21°C° 0 mm 6 m/S 759 mmHg 32%
16:00 +19°C° 0 mm 5 m/S 759 mmHg 36%
17:00 +18°C° 0 mm 4 m/S 759 mmHg 40%
18:00 +15°C° 0 mm 4 m/S 758 mmHg 44%
19:00 +15°C° 0 mm 4 m/S 759 mmHg 44%
20:00 +14°C° 0 mm 4 m/S 759 mmHg 45%
21:00 +13°C° 0 mm 4 m/S 759 mmHg 45%
22:00 +13°C° 0 mm 4 m/S 759 mmHg 46%
23:00 +13°C° 0 mm 4 m/S 759 mmHg 47%

übermorgen, 2 Oktober, Freitag

Zeit Temperatur Niederschläge Wind Luftdruck Luftfeuchtigkeit
00:00 +12°C° 0 mm 4 m/S 759 mmHg 48%
01:00 +12°C° 0 mm 4 m/S 759 mmHg 50%
02:00 +12°C° 0 mm 4 m/S 759 mmHg 52%
03:00 +11°C° 0 mm 4 m/S 760 mmHg 54%
04:00 +11°C° 0 mm 4 m/S 760 mmHg 57%
05:00 +11°C° 0 mm 4 m/S 759 mmHg 61%
06:00 +10°C° 0 mm 4 m/S 759 mmHg 65%
07:00 +12°C° 0 mm 4 m/S 760 mmHg 64%
08:00 +13°C° 0 mm 4 m/S 760 mmHg 64%
09:00 +14°C° 0 mm 5 m/S 760 mmHg 63%
10:00 +15°C° 0 mm 5 m/S 760 mmHg 59%
11:00 +16°C° 0 mm 5 m/S 760 mmHg 55%
12:00 +19°C° 0 mm 5 m/S 760 mmHg 50%
13:00 +19°C° 0 mm 5 m/S 759 mmHg 49%
14:00 +19°C° 0 mm 5 m/S 759 mmHg 48%
15:00 +20°C° 0 mm 5 m/S 759 mmHg 47%
16:00 +18°C° 0 mm 4 m/S 759 mmHg 50%
17:00 +17°C° 0 mm 4 m/S 759 mmHg 54%
18:00 +16°C° 0 mm 3 m/S 759 mmHg 58%
19:00 +14°C° 0 mm 3 m/S 759 mmHg 59%
20:00 +14°C° 0 mm 3 m/S 759 mmHg 60%
21:00 +13°C° 0 mm 3 m/S 760 mmHg 61%
22:00 +13°C° 0 mm 3 m/S 760 mmHg 61%
23:00 +13°C° 0 mm 3 m/S 760 mmHg 61%

3 Oktober, Samstag

Zeit Temperatur Niederschläge Wind Luftdruck Luftfeuchtigkeit
00:00 +12°C° 0 mm 3 m/S 760 mmHg 61%
01:00 +12°C° 0 mm 3 m/S 760 mmHg 62%
02:00 +11°C° 0 mm 3 m/S 760 mmHg 63%
03:00 +11°C° 0 mm 3 m/S 760 mmHg 64%
04:00 +11°C° 0 mm 3 m/S 760 mmHg 64%
05:00 +10°C° 0 mm 3 m/S 760 mmHg 64%
06:00 +10°C° 0 mm 3 m/S 760 mmHg 64%
07:00 +11°C° 0 mm 3 m/S 760 mmHg 61%
08:00 +12°C° 0 mm 4 m/S 760 mmHg 58%
09:00 +13°C° 0 mm 4 m/S 760 mmHg 55%
10:00 +15°C° 0 mm 4 m/S 760 mmHg 52%
11:00 +17°C° 0 mm 4 m/S 760 mmHg 49%
12:00 +18°C° 0 mm 4 m/S 760 mmHg 46%
13:00 +18°C° 0 mm 4 m/S 760 mmHg 46%
14:00 +18°C° 0 mm 4 m/S 760 mmHg 45%
15:00 +19°C° 0 mm 4 m/S 760 mmHg 44%
16:00 +18°C° 0 mm 4 m/S 760 mmHg 48%
17:00 +16°C° 0 mm 3 m/S 760 mmHg 52%
18:00 +14°C° 0 mm 3 m/S 760 mmHg 56%
19:00 +14°C° 0 mm 3 m/S 760 mmHg 57%
20:00 +13°C° 0 mm 3 m/S 760 mmHg 58%
21:00 +13°C° 0 mm 3 m/S 760 mmHg 59%
22:00 +12°C° 0 mm 3 m/S 760 mmHg 59%
23:00 +12°C° 0 mm 3 m/S 760 mmHg 59%

4 Oktober, Sonntag

Zeit Temperatur Niederschläge Wind Luftdruck Luftfeuchtigkeit
00:00 +12°C° 0 mm 3 m/S 760 mmHg 58%
01:00 +12°C° 0 mm 3 m/S 760 mmHg 58%
02:00 +12°C° 0 mm 3 m/S 760 mmHg 58%
03:00 +11°C° 0 mm 3 m/S 760 mmHg 57%
04:00 +11°C° 0 mm 3 m/S 760 mmHg 57%
05:00 +11°C° 0 mm 3 m/S 760 mmHg 57%
06:00 +11°C° 0 mm 3 m/S 760 mmHg 57%
07:00 +12°C° 0 mm 3 m/S 760 mmHg 56%
08:00 +13°C° 0 mm 3 m/S 760 mmHg 55%
09:00 +14°C° 0 mm 3 m/S 760 mmHg 54%
10:00 +16°C° 0 mm 3 m/S 760 mmHg 52%
11:00 +17°C° 0 mm 3 m/S 760 mmHg 50%
12:00 +18°C° 0 mm 3 m/S 760 mmHg 48%
13:00 +18°C° 0 mm 4 m/S 760 mmHg 47%
14:00 +19°C° 0 mm 4 m/S 760 mmHg 46%
15:00 +19°C° 0 mm 4 m/S 759 mmHg 44%
16:00 +18°C° 0 mm 3 m/S 759 mmHg 49%
17:00 +17°C° 0 mm 3 m/S 759 mmHg 54%
18:00 +16°C° 0 mm 2 m/S 759 mmHg 59%
19:00 +15°C° 0.1 mm 2 m/S 759 mmHg 63%
20:00 +15°C° 0.1 mm 2 m/S 759 mmHg 67%
21:00 +13°C° 0.1 mm 3 m/S 759 mmHg 71%
22:00 +12°C° 0 mm 3 m/S 759 mmHg 73%
23:00 +13°C° 0 mm 2 m/S 760 mmHg 75%

5 Oktober, Montag

Zeit Temperatur Niederschläge Wind Luftdruck Luftfeuchtigkeit
00:00 +12°C° 0 mm 2 m/S 760 mmHg 77%
01:00 +12°C° 0 mm 2 m/S 760 mmHg 77%
02:00 +10°C° 0 mm 2 m/S 759 mmHg 78%
03:00 +10°C° 0 mm 2 m/S 759 mmHg 78%
04:00 +9°C° 0 mm 2 m/S 760 mmHg 77%
05:00 +9°C° 0 mm 2 m/S 760 mmHg 75%
06:00 +9°C° 0 mm 2 m/S 760 mmHg 74%
07:00 +10°C° 0 mm 2 m/S 760 mmHg 67%
08:00 +12°C° 0 mm 2 m/S 760 mmHg 60%
09:00 +13°C° 0 mm 2 m/S 760 mmHg 53%
10:00 +15°C° 0 mm 2 m/S 760 mmHg 47%
11:00 +17°C° 0 mm 3 m/S 760 mmHg 41%
12:00 +18°C° 0 mm 3 m/S 760 mmHg 35%
13:00 +19°C° 0 mm 3 m/S 759 mmHg 35%
14:00 +19°C° 0 mm 3 m/S 759 mmHg 34%
15:00 +19°C° 0 mm 3 m/S 759 mmHg 34%
16:00 +18°C° 0 mm 3 m/S 759 mmHg 37%
17:00 +16°C° 0 mm 3 m/S 758 mmHg 41%
18:00 +15°C° 0 mm 2 m/S 758 mmHg 44%
19:00 +14°C° 0 mm 2 m/S 758 mmHg 46%
20:00 +13°C° 0 mm 3 m/S 758 mmHg 47%
21:00 +12°C° 0 mm 3 m/S 758 mmHg 48%
22:00 +12°C° 0 mm 3 m/S 758 mmHg 48%
23:00 +12°C° 0 mm 3 m/S 758 mmHg 48%
Mehr zeigen

We Need Your Consent

Meteoprog and our Service Providers may store and access personal data such as cookies, device identifiers or other similar technologies on your device and process such data to personalise content and ads, as well as provide social media features and to analyse the traffic.

  • Store and/or access information on your device

    Cookies, device identifiers or other information can be stored or accessed on your device for the purposes indicated above.

  • Personalised ads and content, ad and content measurement, audience insights, and products development

    Ads and content can be personalised based on a profile. More data can be added to better personalise ads and content. Ad and content performance can be measured. Insights about the audience who saw the ads and content can be derived. Such data can be used to develop or improve user’s experience, systems and software.

By clicking ‘I Agree’ you will allow the use of indicated cookies, device identifiers, web beacons or other similar technologies. Your settings can be changed in the browser on your device.

For certain purposes, legitimate interests may be relied on, rather than consent. You can read more about this in our Privacy and Cookie Policy.